This demonstration page uses our WeatherBlox Daily Observations layout. Learn more.

38.89511, -77.03637

Hourly Observations for April 30, 2015

Temp ( °F °C ) Dew Point ( °F °C ) Humidity (%) Winds ( mph kmh ) Pressure ( in mb ) Visibility ( mi km ) Precip ( " mm )
12:52 am 00:52 Mostly Cloudy 61 16 48 9 63 63 S 5 7 29.71 1006 10 16.09344 0 0
1:52 am 01:52 Mostly Cloudy 59 15 48 9 68 68 S 5 7 29.68 1005 10 16.09344 0 0
2:52 am 02:52 Partly Cloudy 57 14 48 9 72 72 SSW 5 7 29.65 1004 10 16.09344 0 0
3:52 am 03:52 Cloudy 57 14 46 8 67 67 SSW 3 6 29.65 1004 10 16.09344 0 0
4:52 am 04:52 Cloudy 57 14 46 8 67 67 Calm 29.65 1004 10 16.09344 0 0
5:52 am 05:52 Cloudy 55 13 48 9 77 77 S 5 7 29.65 1004 10 16.09344 0 0
6:37 am 06:37 Cloudy 57 14 48 9 72 72 Calm 29.68 1005 10 16.09344 0 0
6:52 am 06:52 Mostly Cloudy 57 14 48 9 72 72 NE 9 15 29.68 1005 10 16.09344 0 0
7:52 am 07:52 Mostly Cloudy 59 15 46 8 63 63 NE 7 11 29.68 1005 10 16.09344 0 0
8:52 am 08:52 Mostly Cloudy 63 17 46 8 56 56 NE 3 6 29.71 1006 10 16.09344 0 0
9:52 am 09:52 Cloudy 66 19 48 9 52 52 Calm 29.71 1006 10 16.09344 0 0
10:52 am 10:52 Cloudy 70 21 50 10 50 50 ENE 3 6 29.71 1006 10 16.09344 0 0
11:52 am 11:52 Cloudy 72 22 52 11 50 50 S 3 6 29.71 1006 10 16.09344 0 0
12:52 pm 12:52 Cloudy 72 22 52 11 50 50 S 5 7 29.68 1005 10 16.09344 0 0
1:18 pm 13:18 Cloudy with Light Rain 70 21 54 12 57 57 S 7 11 29.68 1005 6 9.656064 0 0
1:30 pm 13:30 Cloudy with Light Thunderstorms 70 21 48 9 46 46 SSW 5 7 29.68 1005 10 16.09344 0 0
1:37 pm 13:37 Cloudy with Heavy Thunderstorms 64 18 54 12 68 68 S 24 39 29.68 1005 1.75 2.816352 0.07 1.778
1:47 pm 13:47 Cloudy with Thunderstorms 63 17 48 9 59 59 SW 13 20 29.68 1005 7 11.265408 0.23 5.842
1:52 pm 13:52 Cloudy with Heavy Thunderstorms 63 17 48 9 59 59 SW 5 7 29.68 1005 7 11.265408 0.32 8.128
1:55 pm 13:55 Cloudy with Heavy Thunderstorms 63 17 48 9 59 59 Calm 29.68 1005 7 11.265408 0.06 1.524
2:08 pm 14:08 Cloudy with Light Rain 64 18 48 9 56 56 S 7 11 29.68 1005 9 14.484096 0 0
2:52 pm 14:52 Cloudy 72 22 50 10 47 47 SW 5 7 29.68 1005 10 16.09344 0.22 5.588
3:32 pm 15:32 Mostly Cloudy 72 22 50 10 47 47 S 5 7 29.65 1004 10 16.09344 0 0
3:52 pm 15:52 Mostly Cloudy 73 23 52 11 47 47 S 7 11 29.65 1004 10 16.09344 0 0
4:19 pm 16:19 Mostly Cloudy 72 22 52 11 50 50 S 7 11 29.65 1004 10 16.09344 0 0
4:52 pm 16:52 Mostly Cloudy 73 23 50 10 44 44 S 7 11 29.65 1004 10 16.09344 0 0
5:15 pm 17:15 Mostly Cloudy 70 21 48 9 46 46 SSE 8 13 29.68 1005 10 16.09344 0 0
5:52 pm 17:52 Mostly Cloudy 72 22 48 9 44 44 SE 5 7 29.68 1005 10 16.09344 0 0
6:07 pm 18:07 Mostly Cloudy with Light Rain 70 21 48 9 46 46 SSE 9 15 29.68 1005 10 16.09344 0.001 0.001
6:29 pm 18:29 Mostly Cloudy 70 21 48 9 46 46 SSE 8 13 29.68 1005 10 16.09344 0.001 0.001
6:52 pm 18:52 Mostly Cloudy 70 21 52 11 53 53 S 9 15 29.71 1006 10 16.09344 0.001 0.001
7:40 pm 19:40 Mostly Cloudy 66 19 46 8 49 49 WNW 16 26 29.74 1007 10 16.09344 0 0
7:45 pm 19:45 Cloudy 66 19 46 8 49 49 WNW 14 22 29.74 1007 10 16.09344 0 0
7:52 pm 19:52 Cloudy 64 18 46 8 52 52 WNW 15 24 29.74 1007 10 16.09344 0 0
8:52 pm 20:52 Mostly Cloudy 61 16 50 10 68 68 NW 15 24 29.77 1008 10 16.09344 0 0
9:52 pm 21:52 Mostly Cloudy 57 14 52 11 82 82 N 10 17 29.8 1009 10 16.09344 0 0
10:52 pm 22:52 Mostly Cloudy 57 14 52 11 82 82 NNW 8 13 29.8 1009 10 16.09344 0 0
11:52 pm 23:52 Mostly Cloudy 61 16 50 10 68 68 ENE 9 15 29.83 1010 10 16.09344 0 0

Powered by AerisWeather